TimeMDT,TemperatureF,Dew PointF,Humidity,Sea Level PressureIn,VisibilityMPH,Wind Direction,Wind SpeedMPH,Gust SpeedMPH,PrecipitationIn,Events,Conditions,WindDirDegrees,DateUTC
12:15 AM,46.6,31.3,55,30.22,10.0,East,4.6,-,N/A,,Clear,80,2012-10-05 06:15:00
12:35 AM,44.8,31.1,59,30.22,10.0,ENE,4.6,-,N/A,,Clear,60,2012-10-05 06:35:00
12:55 AM,45.1,31.1,58,30.22,10.0,North,5.8,-,N/A,,Clear,10,2012-10-05 06:55:00
1:15 AM,44.2,30.2,58,30.21,10.0,North,4.6,-,N/A,,Clear,350,2012-10-05 07:15:00
1:35 AM,46.4,30.7,54,30.22,10.0,Calm,Calm,-,N/A,,Clear,0,2012-10-05 07:35:00
2:15 AM,41.7,30.4,64,30.22,10.0,Calm,Calm,-,N/A,,Clear,0,2012-10-05 08:15:00
2:35 AM,49.1,30.0,48,30.22,10.0,SW,9.2,-,N/A,,Clear,230,2012-10-05 08:35:00
2:55 AM,56.8,27.7,33,30.22,10.0,WSW,8.1,-,N/A,,Clear,240,2012-10-05 08:55:00
3:15 AM,55.2,27.3,34,30.21,10.0,SSW,6.9,-,N/A,,Clear,210,2012-10-05 09:15:00
3:35 AM,58.6,27.3,30,30.21,10.0,SSW,5.8,-,N/A,,Clear,210,2012-10-05 09:35:00
3:55 AM,60.4,27.9,29,30.21,10.0,SW,4.6,-,N/A,,Clear,230,2012-10-05 09:55:00
4:15 AM,60.3,28.0,29,30.21,10.0,NNE,3.5,-,N/A,,Clear,30,2012-10-05 10:15:00
4:35 AM,61.0,28.2,29,30.21,10.0,ENE,3.5,-,N/A,,Clear,70,2012-10-05 10:35:00
4:55 AM,56.7,28.0,33,30.21,10.0,Calm,Calm,-,N/A,,Clear,0,2012-10-05 10:55:00
5:15 AM,57.2,28.6,34,30.21,10.0,NNE,3.5,-,N/A,,Clear,20,2012-10-05 11:15:00
5:35 AM,55.0,28.4,36,30.21,10.0,ENE,3.5,-,N/A,,Clear,70,2012-10-05 11:35:00
5:55 AM,52.7,28.9,40,30.22,10.0,Calm,Calm,-,N/A,,Clear,0,2012-10-05 11:55:00
6:15 AM,54.7,28.8,37,30.22,10.0,Calm,Calm,-,N/A,,Clear,0,2012-10-05 12:15:00
6:35 AM,52.0,29.1,41,30.22,10.0,Calm,Calm,-,N/A,,Clear,0,2012-10-05 12:35:00
6:55 AM,47.7,29.3,49,30.22,10.0,ENE,3.5,-,N/A,,Clear,60,2012-10-05 12:55:00
7:15 AM,48.4,29.7,48,30.22,10.0,NE,3.5,-,N/A,,Clear,50,2012-10-05 13:15:00
7:35 AM,49.1,30.4,49,30.23,10.0,Calm,Calm,-,N/A,,Clear,0,2012-10-05 13:35:00
7:55 AM,53.8,31.3,42,30.23,7.0,ENE,3.5,-,N/A,,Clear,70,2012-10-05 13:55:00
8:35 AM,63.3,32.0,31,30.23,10.0,South,3.5,-,N/A,,Clear,180,2012-10-05 14:35:00
8:55 AM,66.2,32.2,28,30.23,10.0,West,11.5,20.7,N/A,,Clear,260,2012-10-05 14:55:00
9:15 AM,67.3,32.4,27,30.23,10.0,West,20.7,26.5,N/A,,Clear,280,2012-10-05 15:15:00
9:35 AM,68.2,32.5,27,30.22,7.0,West,17.3,-,N/A,,Clear,260,2012-10-05 15:35:00
10:15 AM,70.0,31.8,24,30.21,5.0,West,23.0,31.1,N/A,,Haze,270,2012-10-05 16:15:00
10:35 AM,70.7,31.6,24,30.22,7.0,West,21.9,28.8,N/A,,Clear,260,2012-10-05 16:35:00
10:55 AM,71.2,31.1,23,30.22,7.0,West,19.6,26.5,N/A,,Clear,270,2012-10-05 16:55:00
11:15 AM,72.0,30.7,22,30.21,10.0,West,16.1,24.2,N/A,,Clear,260,2012-10-05 17:15:00
11:35 AM,72.7,30.6,21,30.20,10.0,West,19.6,27.6,N/A,,Clear,270,2012-10-05 17:35:00
11:55 AM,73.2,30.2,20,30.20,10.0,West,18.4,24.2,N/A,,Clear,270,2012-10-05 17:55:00
12:15 PM,74.1,30.2,20,30.19,10.0,West,12.7,19.6,N/A,,Clear,260,2012-10-05 18:15:00
12:35 PM,74.7,28.6,18,30.18,10.0,West,17.3,20.7,N/A,,Clear,270,2012-10-05 18:35:00
12:55 PM,75.6,28.8,18,30.17,10.0,West,16.1,23.0,N/A,,Clear,270,2012-10-05 18:55:00
1:15 PM,75.6,27.3,17,30.16,10.0,West,15.0,20.7,N/A,,Clear,280,2012-10-05 19:15:00
1:35 PM,76.3,28.6,17,30.16,10.0,West,10.4,18.4,N/A,,Clear,280,2012-10-05 19:35:00
1:55 PM,77.5,27.1,16,30.14,10.0,WNW,16.1,26.5,N/A,,Clear,300,2012-10-05 19:55:00
2:15 PM,78.3,27.0,15,30.13,10.0,West,15.0,24.2,N/A,,Clear,270,2012-10-05 20:15:00
2:35 PM,77.9,25.5,14,30.12,10.0,West,16.1,27.6,N/A,,Clear,270,2012-10-05 20:35:00
2:55 PM,78.8,25.9,14,30.11,10.0,West,9.2,17.3,N/A,,Clear,280,2012-10-05 20:55:00
3:15 PM,79.3,26.6,14,30.11,10.0,WSW,21.9,-,N/A,,Clear,250,2012-10-05 21:15:00
3:35 PM,79.9,26.4,14,30.10,10.0,West,21.9,28.8,N/A,,Clear,270,2012-10-05 21:35:00
3:55 PM,79.0,25.3,14,30.10,10.0,West,19.6,23.0,N/A,,Clear,280,2012-10-05 21:55:00
4:15 PM,78.8,25.2,14,30.10,10.0,West,16.1,25.3,N/A,,Clear,280,2012-10-05 22:15:00
4:35 PM,78.3,24.4,14,30.10,10.0,West,11.5,28.8,N/A,,Clear,260,2012-10-05 22:35:00
4:55 PM,78.3,24.3,14,30.10,10.0,West,19.6,28.8,N/A,,Clear,260,2012-10-05 22:55:00
5:15 PM,77.2,23.9,14,30.10,10.0,West,20.7,32.2,N/A,,Clear,260,2012-10-05 23:15:00
5:35 PM,76.5,23.0,14,30.10,10.0,West,11.5,19.6,N/A,,Clear,270,2012-10-05 23:35:00
5:55 PM,75.9,21.4,13,30.10,10.0,WSW,13.8,-,N/A,,Clear,250,2012-10-05 23:55:00
6:15 PM,74.5,22.1,14,30.10,10.0,West,11.5,-,N/A,,Clear,260,2012-10-06 00:15:00
6:35 PM,72.5,21.4,15,30.10,10.0,West,11.5,-,N/A,,Clear,260,2012-10-06 00:35:00
6:55 PM,70.0,21.4,16,30.11,10.0,West,9.2,-,N/A,,Clear,270,2012-10-06 00:55:00
7:15 PM,67.5,21.9,18,30.11,10.0,West,8.1,-,N/A,,Clear,270,2012-10-06 01:15:00
7:35 PM,63.1,21.9,21,30.12,10.0,West,8.1,-,N/A,,Clear,260,2012-10-06 01:35:00
7:55 PM,62.8,21.9,21,30.12,10.0,WSW,6.9,-,N/A,,Clear,250,2012-10-06 01:55:00
8:15 PM,60.6,21.7,22,30.13,10.0,WSW,6.9,-,N/A,,Clear,250,2012-10-06 02:15:00
8:35 PM,59.7,21.6,23,30.13,10.0,West,8.1,-,N/A,,Clear,280,2012-10-06 02:35:00
8:55 PM,57.2,21.2,25,30.14,10.0,WSW,8.1,-,N/A,,Clear,250,2012-10-06 02:55:00
9:15 PM,54.5,21.7,28,30.14,10.0,West,6.9,-,N/A,,Clear,270,2012-10-06 03:15:00
9:35 PM,58.1,21.6,24,30.14,10.0,West,8.1,-,N/A,,Clear,270,2012-10-06 03:35:00
9:55 PM,59.0,21.6,24,30.14,10.0,West,9.2,-,N/A,,Clear,260,2012-10-06 03:55:00
10:35 PM,54.9,32.7,43,30.16,10.0,East,12.7,-,N/A,,Clear,90,2012-10-06 04:35:00
10:55 PM,52.7,39.2,60,30.17,10.0,East,24.2,28.8,N/A,,Clear,80,2012-10-06 04:55:00
11:15 PM,50.7,38.8,64,30.17,10.0,East,17.3,26.5,N/A,,Clear,80,2012-10-06 05:15:00
11:35 PM,49.3,38.5,66,30.16,10.0,East,20.7,28.8,N/A,,Clear,80,2012-10-06 05:35:00
11:55 PM,48.9,38.5,67,30.17,10.0,East,23.0,29.9,N/A,,Clear,90,2012-10-06 05:55:00